Grand Prairie, TX

5:22 PM CST on January 16, 2017 (GMT -0600)
Grand Prairie Municipal

Weather History for KGPM - March, 2013

Change the Weather History Date:

Tuesday, March 12, 2013

  Actual Average (KRBD) Record (KRBD)
Temperature  
Mean Temperature 52 °F -  
Max Temperature 66 °F 62 °F 84 °F (2005)
Min Temperature 39 °F 44 °F 28 °F (1998)
Degree Days  
Heating Degree Days 12    
Growing Degree Days 2 (Base 50)    
Moisture  
Dew Point 27 °F    
Average Humidity 43    
Maximum Humidity 65    
Minimum Humidity 22    
Precipitation  
Precipitation 0.00 in - - ()
Sea Level Pressure  
Sea Level Pressure 30.17 in    
Wind  
Wind Speed 4 mph (ESE)    
Max Wind Speed 16 mph    
Max Gust Speed 21 mph    
Visibility 10 miles    
Events      
Averages and records for this station are not official NWS values.
T = Trace of Precipitation, MM = Missing Value Source: NWS Daily Summary

Daily Weather History Graph

Daily Weather History Graph

Search for Another Location

Airport or City:

Trip Planner

Search our weather history database for the weather conditions in past years. The results will help you decide how hot, cold, wet, or windy it might be!

Date:

Astronomy

Mar. 12, 2013 Rise Set
Actual Time 7:41 AM CDT 7:34 PM CDT
Civil Twilight 7:17 AM CDT 7:58 PM CDT
Nautical Twilight 6:48 AM CDT 8:27 PM CDT
Astronomical Twilight 6:20 AM CDT 8:56 PM CDT
Moon 7:54 AM CDT (3/12) 8:43 PM CDT (3/12)
Length of Visible Light 12h 41m
Length of Day
11h 52m
New Moon, 1% of the Moon is Illuminated
Mar 12
New Moon
Mar 19
First Quarter
Mar 27
Full
Apr 2
Last Quarter
Apr 10
New

Hourly Weather History & Observations

Time (CDT) Temp. Windchill Dew Point Humidity Pressure Visibility Wind Dir Wind Speed Gust Speed Precip Events Conditions
12:15 AM 46.4 °F 43.5 °F 26.6 °F 46% 30.08 in 10.0 mi SSE 5.8 mph - N/A   Clear
12:35 AM 46.4 °F 44.3 °F 24.8 °F 43% 30.09 in 10.0 mi South 4.6 mph - N/A   Clear
12:55 AM 46.4 °F 44.3 °F 26.6 °F 46% 30.09 in 10.0 mi SW 4.6 mph - N/A   Clear
1:15 AM 46.4 °F - 26.6 °F 46% 30.09 in 10.0 mi Calm Calm - N/A   Clear
1:35 AM 44.6 °F - 26.6 °F 49% 30.09 in 10.0 mi Calm Calm - N/A   Clear
1:55 AM 42.8 °F - 28.4 °F 57% 30.09 in 10.0 mi Calm Calm - N/A   Clear
2:15 AM 44.6 °F 43.1 °F 26.6 °F 49% 30.09 in 10.0 mi SSE 3.5 mph - N/A   Clear
2:35 AM 44.6 °F - 26.6 °F 49% 30.08 in 10.0 mi Calm Calm - N/A   Clear
2:55 AM 44.6 °F - 24.8 °F 46% 30.07 in 10.0 mi Calm Calm - N/A   Clear
3:15 AM 44.6 °F 42.2 °F 23.0 °F 43% 30.07 in 10.0 mi SSE 4.6 mph - N/A   Clear
3:35 AM 44.6 °F 41.4 °F 26.6 °F 49% 30.07 in 10.0 mi South 5.8 mph - N/A   Clear
3:55 AM 42.8 °F 39.3 °F 28.4 °F 57% 30.07 in 10.0 mi SW 5.8 mph - N/A   Clear
4:15 AM 42.8 °F 39.3 °F 26.6 °F 53% 30.07 in 10.0 mi SSW 5.8 mph - N/A   Clear
4:35 AM 42.8 °F 39.3 °F 24.8 °F 49% 30.08 in 10.0 mi SSW 5.8 mph - N/A   Clear
4:55 AM 42.8 °F 41.1 °F 24.8 °F 49% 30.08 in 10.0 mi South 3.5 mph - N/A   Clear
5:15 AM 41.0 °F - 26.6 °F 57% 30.09 in 10.0 mi Calm Calm - N/A   Clear
5:35 AM 41.0 °F - 26.6 °F 57% 30.09 in 10.0 mi Calm Calm - N/A   Clear
5:55 AM 42.8 °F - 26.6 °F 53% 30.10 in 10.0 mi Calm Calm - N/A   Clear
6:15 AM 39.2 °F - 28.4 °F 65% 30.11 in 10.0 mi Calm Calm - N/A   Clear
6:35 AM 41.0 °F 38.0 °F 26.6 °F 57% 30.11 in 10.0 mi SSE 4.6 mph - N/A   Clear
6:50 AM 42.8 °F 40.1 °F 26.6 °F 53% 30.11 in 10.0 mi SSE 4.6 mph - N/A   Clear
6:55 AM 42.8 °F 39.3 °F 24.8 °F 49% 30.11 in 10.0 mi South 5.8 mph - N/A   Clear
7:50 AM 42.8 °F - 26.6 °F 53% 30.12 in 10.0 mi Calm Calm - N/A   Clear
11:50 AM 59.0 °F - 23.0 °F 25% 30.22 in 10.0 mi East 16.1 mph 20.7 mph N/A   Clear
12:50 PM 62.6 °F - 24.8 °F 24% 30.21 in 10.0 mi ENE 13.8 mph 20.7 mph N/A   Clear
2:49 PM 64.4 °F - 24.8 °F 22% 30.20 in 10.0 mi Calm Calm - N/A   Clear
3:51 PM 64.4 °F - 26.6 °F 24% 30.20 in 10.0 mi NNE 4.6 mph - N/A   Clear
4:50 PM 66.2 °F - 26.6 °F 23% 30.19 in 10.0 mi NE 5.8 mph - N/A   Clear
5:54 PM 66.2 °F - 28.4 °F 24% 30.20 in 10.0 mi NNE 5.8 mph - N/A   Clear
6:58 PM 62.6 °F - 28.4 °F 27% 30.22 in 10.0 mi North 9.2 mph - N/A   Clear
7:52 PM 60.8 °F - 28.4 °F 29% 30.24 in 10.0 mi North 10.4 mph - N/A   Clear
9:15 PM 55.4 °F - 32.0 °F 41% 30.29 in 10.0 mi NNE 6.9 mph - N/A   Clear
9:35 PM 53.6 °F - 30.2 °F 41% 30.29 in 10.0 mi NNE 4.6 mph - N/A   Clear
9:55 PM 53.6 °F - 30.2 °F 41% 30.31 in 10.0 mi North 6.9 mph - N/A   Clear
10:15 PM 53.6 °F - 30.2 °F 41% 30.31 in 10.0 mi North 5.8 mph - N/A   Clear
10:35 PM 53.6 °F - 28.4 °F 38% 30.32 in 10.0 mi North 4.6 mph - N/A   Clear
10:55 PM 53.6 °F - 28.4 °F 38% 30.33 in 10.0 mi Calm Calm - N/A   Clear
11:15 PM 53.6 °F - 28.4 °F 38% 30.34 in 10.0 mi North 3.5 mph - N/A   Clear
11:35 PM 53.6 °F - 28.4 °F 38% 30.34 in 10.0 mi Calm Calm - N/A   Clear
11:55 PM 53.6 °F - 28.4 °F 38% 30.35 in 10.0 mi Calm Calm - N/A   Clear